Location: Unspecified
(0.0000°N, 0.0000°E)
Time: 17:31:41
(UTC+02:00)

ARIANE DEB (SPELDA) - Visible Passes

Search period start: 31 July 2014 00:00
Search period end: 10 August 2014 00:00
Orbit: 338 x 33314 km, 3.4° (Epoch: 31 July)

Date Brightness Start Highest point End Pass type
(mag) Time Alt. Az. Time Alt. Az. Time Alt. Az.
31 Jul 5.4 13:49:23 10° W 22:44:05 86° N 22:47:24 63° ENE visible
02 Aug 5.5 14:49:39 10° W 23:37:27 71° WNW 23:37:27 71° WNW visible
04 Aug 5.0 05:17:07 29° ENE 05:17:07 29° ENE 05:22:28 10° E visible
04 Aug 6.2 15:53:26 10° W 00:25:10 37° W 00:25:10 37° W visible
06 Aug 3.3 06:03:28 72° NNW 06:03:45 75° N 06:20:50 10° E visible
06 Aug 10.6 17:12:07 10° W 18:11:34 15° W 19:45:01 10° W visible
07 Aug 7.0 01:06:13 10° W 01:10:38 16° W 01:10:38 16° W visible
07 Aug 6.7 11:31:06 10° W 20:15:36 90° S 20:39:14 10° E visible
08 Aug 4.3 09:33:27 10° E 06:50:48 83° N 15:31:53 10° E visible
09 Aug 6.2 12:17:46 10° W 21:08:40 88° N 21:22:23 19° E visible
